Ashgabat, Turkmenistan

7:39 AM +05 on November 17, 2019 (GMT +0500)
Ashgabat

Weather History for UTAA - June, 2019

Change the Weather History Date:

Monday, June 10, 2019

  Actual Average Record
Temperature  
Mean Temperature 78 °F -  
Max Temperature 88 °F 98 °F - ()
Min Temperature 69 °F 71 °F - ()
Cooling Degree Days 14    
Growing Degree Days 28 (Base 50)    
Moisture  
Dew Point 43 °F    
Average Humidity 27    
Maximum Humidity 50    
Minimum Humidity 8    
Precipitation  
Precipitation 0.00 in 0.00 in - ()
Sea Level Pressure  
Sea Level Pressure 30.05 in    
Wind  
Wind Speed 5 mph ()    
Max Wind Speed 9 mph    
Max Gust Speed -    
Visibility 6.0 miles    
Events      
T = Trace of Precipitation, MM = Missing Value Source: Averaged Metar Reports

Daily Weather History Graph

Daily Weather History Graph

Search for Another Location

Airport or City:

Astronomy

Jun. 10, 2019 Rise Set
Actual Time 5:43 AM +05 8:28 PM +05
Civil Twilight 5:12 AM +05 8:59 PM +05
Nautical Twilight 4:33 AM +05 9:38 PM +05
Astronomical Twilight 3:49 AM +05 10:23 PM +05
Moon 12:59 PM +05 (6/10) 1:32 AM +05 (6/10)
Length of Visible Light 15h 47m
Length of Day
14h 44m
Waxing Crescent, 51% of the Moon is Illuminated
Jun 10
Waxing Crescent
Jun 17
Full
Jun 25
Last Quarter
Jul 3
New
Jul 9
First Quarter

Hourly Weather History & Observations

Time (+05) Temp. Dew Point Humidity Pressure Visibility Wind Dir Wind Speed Gust Speed Precip Events Conditions
12:00 AM 73.4 °F 51.8 °F 47% 30.04 in 6.2 mi NNW 4.6 mph - N/A   Mostly Cloudy
1:00 AM 75.2 °F 51.8 °F 44% 30.01 in 6.2 mi NW 4.6 mph - N/A   Mostly Cloudy
2:00 AM 77 °F 51 °F 29% 30.02 in 6 mi SW 4.5 mph - -   Mostly Cloudy
2:00 AM 75.2 °F 51.8 °F 44% 30.01 in 6.2 mi Variable 2.3 mph - N/A   Mostly Cloudy
3:00 AM 77.0 °F 50.0 °F 39% 30.01 in 6.2 mi WSW 6.9 mph - N/A   Mostly Cloudy
4:00 AM 71.6 °F 51.8 °F 50% 30.04 in 6.2 mi NNW 4.6 mph - N/A   Mostly Cloudy
5:00 AM 72 °F 54 °F 42% 30.05 in 6 mi NNW 2.2 mph - -   Partly Cloudy
5:00 AM 69.8 °F 50.0 °F 49% 30.04 in 6.2 mi Variable 2.3 mph - N/A   Mostly Cloudy
6:00 AM 69.8 °F 50.0 °F 49% 30.06 in 6.2 mi West 4.6 mph - N/A   Scattered Clouds
7:00 AM 71.6 °F 51.8 °F 50% 30.06 in 6.2 mi NNW 2.3 mph - N/A   Scattered Clouds
8:00 AM 74 °F 52 °F 36% 30.07 in 6 mi NE 4.5 mph - -   Scattered Clouds
8:00 AM 77.0 °F 46.4 °F 34% 30.06 in 6.2 mi East 6.9 mph - N/A   Scattered Clouds
9:00 AM 80.6 °F 42.8 °F 26% 30.09 in 6.2 mi East 6.9 mph - N/A   Scattered Clouds
10:00 AM 82.4 °F 41.0 °F 23% 30.09 in 6.2 mi ENE 6.9 mph - N/A   Scattered Clouds
11:00 AM 83 °F 41 °F 13% 30.09 in 6 mi NE 4.5 mph - -   Scattered Clouds
11:00 AM 84.2 °F 41.0 °F 22% 30.09 in 6.2 mi ESE 4.6 mph - N/A   Scattered Clouds
12:00 PM 84.2 °F 41.0 °F 22% 30.09 in 6.2 mi ENE 6.9 mph - N/A   Scattered Clouds
1:00 PM 84.2 °F 41.0 °F 22% 30.06 in 6.2 mi North 6.9 mph - N/A   Partly Cloudy
2:00 PM 86 °F 42 °F 12% 30.06 in 6 mi North 8.9 mph - -  
2:00 PM 86.0 °F 41.0 °F 20% 30.06 in 6.2 mi North 4.6 mph - N/A   Unknown
3:00 PM 86.0 °F 39.2 °F 19% 30.04 in 6.2 mi NE 6.9 mph - N/A   Unknown
4:00 PM 87.8 °F 39.2 °F 18% 30.04 in 5.6 mi ENE 6.9 mph - N/A   Unknown
5:00 PM 86 °F 35 °F 8% 30.02 in 6 mi NNE 3.5 mph - -  
5:00 PM 87.8 °F 35.6 °F 16% 30.04 in 5.6 mi North 9.2 mph - N/A   Unknown
6:00 PM 87.8 °F 35.6 °F 16% 30.04 in 6.2 mi NNW 9.2 mph - N/A   Unknown
7:00 PM 87.8 °F 35.6 °F 16% 30.04 in 6.2 mi NNW 6.9 mph - N/A   Unknown
8:00 PM 86 °F 35 °F 8% 30.02 in 6 mi NNE 6.7 mph - -  
8:00 PM 86.0 °F 37.4 °F 18% 30.04 in 6.2 mi ENE 6.9 mph - N/A   Unknown
9:00 PM 82.4 °F 33.8 °F 17% 30.04 in 5.6 mi NE 4.6 mph - N/A   Unknown
10:00 PM 80.6 °F 32.0 °F 17% 30.06 in 6.2 mi ENE 4.6 mph - N/A   Unknown
11:00 PM 79 °F 39 °F 14% 30.06 in 6 mi SSW 4.5 mph - -  
11:00 PM 77.0 °F 37.4 °F 24% 30.06 in 4.3 mi Variable 2.3 mph - N/A   Unknown